CAPE
0 0 0 0 0 0 0 0 0 0 0 0 0 0 0 0 0 0 0 0 0 319 0 0 0 0 0 0 0 0 0 0 0 0 0 0 0 0 0 0 0 0 0 0 0
0 0 0 0 0 0 0 0 0 0 0 0 0 0 0 0 0 0 0 12 312 125 0 0 0 0 0 0 0 0 0 0 0 0 0 0 0 0 0 0 0 0 0 0 0
0 0 0 0 0 0 0 0 0 0 0 0 0 0 0 0 0 0 0 0 176 34 0 0 0 0 0 0 0 0 0 0 0 0 0 0 0 0 0 0 0 0 0 0 0
0 0 0 0 0 0 0 0 0 0 0 0 0 0 0 0 0 0 0 151 107 0 0 0 0 0 0 0 0 0 0 0 0 0 0 0 0 0 0 0 0 0 0 0 0
0 0 0 0 0 0 0 0 0 0 0 0 0 0 0 0 0 0 0 0 0 0 0 0 0 0 0 0 0 0 0 0 0 0 0 0 0 0 0 0 0 0 0 0 0
0 0 0 0 0 0 0 0 0 0 0 0 0 0 0 0 0 0 0 0 0 0 0 0 0 0 0 0 0 0 0 0 0 0 0 0 0 0 0 0 0 0 0 0 0
0 0 0 0 0 0 0 0 0 0 0 0 0 0 0 0 0 0 0 0 0 0 0 0 0 0 0 0 0 0 0 0 0 0 0 0 0 0 0 0 0 0 0 0 0
0 0 0 0 0 0 0 0 0 0 0 0 0 0 0 0 0 0 0 0 0 0 0 0 0 0 0 0 0 0 0 0 0 0 0 0 0 0 0 0 0 0 0 0 0
0 0 0 0 0 0 0 0 0 0 0 0 0 0 0 0 0 0 0 0 0 0 0 0 0 0 0 0 0 0 0 0 0 0 0 0 0 0 0 0 0 0 0 0 0
0 0 0 0 0 0 0 0 0 0 0 0 0 0 0 0 0 0 0 0 0 0 0 0 0 0 0 0 0 0 0 0 0 0 0 0 0 0 0 0 0 0 0 0 0
0 0 0 0 0 0 0 0 0 0 0 0 0 0 0 0 0 0 0 0 0 0 0 0 0 0 0 0 0 0 0 0 0 0 0 0 0 0 0 0 0 0 0 0 0
0 0 0 0 0 0 0 0 0 0 0 0 0 0 0 0 0 0 0 0 0 0 0 0 0 0 0 0 0 0 0 0 0 0 0 0 0 0 0 0 0 0 0 0 0
0 0 0 0 0 0 0 0 0 0 0 0 0 0 0 0 0 0 0 0 0 0 0 0 0 0 0 0 0 0 0 0 0 0 0 0 0 0 0 0 0 0 0 0 0
0 0 0 0 0 0 0 0 0 0 0 0 0 0 0 0 0 0 0 0 0 0 0 0 0 0 0 0 0 0 0 0 0 0 0 0 0 0 0 0 0 0 0 0 0
0 0 0 0 0 0 0 0 0 0 0 0 0 0 0 0 0 0 0 0 0 0 0 0 0 0 0 0 0 0 0 0 0 0 0 0 0 0 0 0 0 0 0 0 0
0 0 0 0 0 0 0 0 0 0 0 0 0 0 0 0 0 0 0 0 0 0 0 0 0 0 0 0 0 0 0 0 0 0 0 0 0 0 0 0 0 0 0 0 0
0 0 0 0 0 0 0 0 0 0 0 0 0 0 0 0 0 0 0 0 0 0 0 0 0 0 0 0 0 0 0 0 0 0 0 0 0 0 0 0 0 0 0 0 0
0 0 0 0 0 0 0 0 0 0 0 0 0 0 0 0 0 0 0 0 0 0 0 0 0 0 0 0 0 0 0 0 0 0 0 0 0 0 0 0 0 0 0 0 0
0 0 0 0 0 0 0 0 0 0 0 0 0 0 0 0 0 0 0 0 0 0 0 0 0 0 0 0 0 0 0 0 0 0 0 0 0 0 0 0 0 0 0 0 0
0 0 0 0 0 0 0 0 0 0 0 0 0 0 0 0 0 0 0 0 0 0 0 0 0 0 0 0 0 0 0 0 0 0 0 0 0 0 0 0 0 0 0 0 0
0 0 0 0 0 0 0 0 0 0 0 0 0 0 0 0 0 0 0 0 0 0 0 0 0 0 0 0 0 0 0 0 0 0 0 0 0 0 0 0 0 0 0 0 0
0 0 0 0 0 0 0 0 0 0 0 0 0 0 0 0 0 0 0 0 0 0 0 0 0 0 0 0 0 0 0 0 0 0 0 0 0 0 0 0 0 0 0 0 0
0 0 0 0 0 0 0 0 0 0 0 0 0 0 0 0 0 0 0 0 0 0 0 0 0 0 0 0 0 0 0 0 0 0 0 0 0 0 0 0 0 0 0 0 0
0 0 0 0 0 0 0 0 0 0 0 0 0 0 0 0 0 0 0 0 0 0 0 0 0 0 0 0 0 0 0 0 0 0 0 0 0 0 0 0 0 0 0 0 0
0 0 0 0 0 0 0 0 0 0 0 0 0 0 0 0 0 0 0 0 0 0 0 0 0 0 0 0 0 0 0 0 0 0 0 0 0 0 0 0 0 0 0 0 0
0 0 0 0 0 0 0 0 0 0 0 0 0 0 0 0 0 0 0 0 0 0 0 0 0 0 0 0 0 0 0 0 0 0 0 0 0 0 0 0 0 0 0 0 0
0 0 0 0 0 0 0 0 0 0 0 0 0 0 0 0 0 0 0 0 0 0 0 0 0 0 0 0 0 0 0 0 0 0 0 0 0 0 0 0 0 0 0 0 0
CIN
0 0 0 0 0 0 0 0 0 0 0 0 0 0 0 0 0 0 0 0 0 -224 0 0 0 0 0 0 0 0 0 0 0 0 0 0 0 0 0 0 0 0 0 0 0
0 0 0 0 0 0 0 0 0 0 0 0 0 0 0 0 0 0 0 -42 -304 -399 0 0 0 0 0 0 0 0 0 0 0 0 0 0 0 0 0 0 0 0 0 0 0
0 0 0 0 0 0 0 0 0 0 0 0 0 0 0 0 0 0 0 -75 -380 -116 0 0 0 0 0 0 0 0 0 0 0 0 0 0 0 0 0 0 0 0 0 0 0
0 0 0 0 0 0 0 0 0 0 0 0 0 0 0 0 0 0 0 -404 -175 0 0 0 0 0 0 0 0 0 0 0 0 0 0 0 0 0 0 0 0 0 0 0 0
0 0 0 0 0 0 0 0 0 0 0 0 0 0 0 0 0 0 0 0 0 0 0 0 0 0 0 0 0 0 0 0 0 0 0 0 0 0 0 0 0 0 0 0 0
0 0 0 0 0 0 0 0 0 0 0 0 0 0 0 0 0 0 0 0 0 0 0 0 0 0 0 0 0 0 0 0 0 0 0 0 0 0 0 0 0 0 0 0 0
0 0 0 0 0 0 0 0 0 0 0 0 0 0 0 0 0 0 0 0 0 0 0 0 0 0 0 0 0 0 0 0 0 0 0 0 0 0 0 0 0 0 0 0 0
0 0 0 0 0 0 0 0 0 0 0 0 0 0 0 0 0 0 0 0 0 0 0 0 0 0 0 0 0 0 0 0 0 0 0 0 0 0 0 0 0 0 0 0 0
0 0 0 0 0 0 0 0 0 0 0 0 0 0 0 0 0 0 0 0 0 0 0 0 0 0 0 0 0 0 0 0 0 0 0 0 0 0 0 0 0 0 0 0 0
0 0 0 0 0 0 0 0 0 0 0 0 0 0 0 0 0 0 0 0 0 0 0 0 0 0 0 0 0 0 0 0 0 0 0 0 0 0 0 0 0 0 0 0 0
0 0 0 0 0 0 0 0 0 0 0 0 0 0 0 0 0 0 0 0 0 0 0 0 0 0 0 0 0 0 0 0 0 0 0 0 0 0 0 0 0 0 0 0 0
0 0 0 0 0 0 0 0 0 0 0 0 0 0 0 0 0 0 0 0 0 0 0 0 0 0 0 0 0 0 0 0 0 0 0 0 0 0 0 0 0 0 0 0 0
0 0 0 0 0 0 0 0 0 0 0 0 0 0 0 0 0 0 0 0 0 0 0 0 0 0 0 0 0 0 0 0 0 0 0 0 0 0 0 0 0 0 0 0 0
0 0 0 0 0 0 0 0 0 0 0 0 0 0 0 0 0 0 0 0 0 0 0 0 0 0 0 0 0 0 0 0 0 0 0 0 0 0 0 0 0 0 0 0 0
0 0 0 0 0 0 0 0 0 0 0 0 0 0 0 0 0 0 0 0 0 0 0 0 0 0 0 0 0 0 0 0 0 0 0 0 0 0 0 0 0 0 0 0 0
0 0 0 0 0 0 0 0 0 0 0 0 0 0 0 0 0 0 0 0 0 0 0 0 0 0 0 0 0 0 0 0 0 0 0 0 0 0 0 0 0 0 0 0 0
0 0 0 0 0 0 0 0 0 0 0 0 0 0 0 0 0 0 0 0 0 0 0 0 0 0 0 0 0 0 0 0 0 0 0 0 0 0 0 0 0 0 0 0 0
0 0 0 0 0 0 0 0 0 0 0 0 0 0 0 0 0 0 0 0 0 0 0 0 0 0 0 0 0 0 0 0 0 0 0 0 0 0 0 0 0 0 0 0 0
0 0 0 0 0 0 0 0 0 0 0 0 0 0 0 0 0 0 0 0 0 0 0 0 0 0 0 0 0 0 0 0 0 0 0 0 0 0 0 0 0 0 0 0 0
0 0 0 0 0 0 0 0 0 0 0 0 0 0 0 0 0 0 0 0 0 0 0 0 0 0 0 0 0 0 0 0 0 0 0 0 0 0 0 0 0 0 0 0 0
0 0 0 0 0 0 0 0 0 0 0 0 0 0 0 0 0 0 0 0 0 0 0 0 0 0 0 0 0 0 0 0 0 0 0 0 0 0 0 0 0 0 0 0 0
0 0 0 0 0 0 0 0 0 0 0 0 0 0 0 0 0 0 0 0 0 0 0 0 0 0 0 0 0 0 0 0 0 0 0 0 0 0 0 0 0 0 0 0 0
0 0 0 0 0 0 0 0 0 0 0 0 0 0 0 0 0 0 0 0 0 0 0 0 0 0 0 0 0 0 0 0 0 0 0 0 0 0 0 0 0 0 0 0 0
0 0 0 0 0 0 0 0 0 0 0 0 0 0 0 0 0 0 0 0 0 0 0 0 0 0 0 0 0 0 0 0 0 0 0 0 0 0 0 0 0 0 0 0 0
0 0 0 0 0 0 0 0 0 0 0 0 0 0 0 0 0 0 0 0 0 0 0 0 0 0 0 0 0 0 0 0 0 0 0 0 0 0 0 0 0 0 0 0 0
0 0 0 0 0 0 0 0 0 0 0 0 0 0 0 0 0 0 0 0 0 0 0 0 0 0 0 0 0 0 0 0 0 0 0 0 0 0 0 0 0 0 0 0 0
0 0 0 0 0 0 0 0 0 0 0 0 0 0 0 0 0 0 0 0 0 0 0 0 0 0 0 0 0 0 0 0 0 0 0 0 0 0 0 0 0 0 0 0 0
Wind_Speed
11 11 10 9 9 9 9 9 8 7 8 9 8 10 8 10 9 0 3 3 5 9 1 1 5 4 5 5 5 1 4 2 5 6 5 5 4 2 3 6 4 4 4 7 8
11 11 11 11 9 8 9 10 11 10 8 9 9 8 9 7 2 3 1 9 7 3 2 4 3 4 5 4 5 5 3 2 1 2 4 7 2 6 4 5 5 7 6 6 6
12 11 11 11 10 8 8 9 10 11 10 9 9 9 7 1 3 2 10 11 2 5 3 4 6 5 5 4 7 4 3 2 4 2 7 7 4 2 10 2 5 9 10 6 5
13 13 12 10 11 10 9 8 9 10 11 10 9 7 7 1 1 3 11 5 6 4 3 4 5 5 5 4 3 6 4 2 2 3 4 6 6 4 3 2 5 13 10 6 6
14 13 13 12 11 12 12 10 9 10 10 10 8 8 2 4 1 5 9 2 2 2 4 3 3 5 5 5 3 5 2 4 4 7 6 6 4 5 4 5 9 10 7 8 5
14 14 14 13 13 12 11 12 13 10 9 10 7 6 2 2 1 5 7 4 5 4 3 4 5 6 8 4 4 2 6 5 3 3 3 4 2 1 4 6 8 8 7 6 5
15 15 16 15 14 13 12 12 13 13 10 6 7 1 3 2 1 4 7 4 5 3 5 3 7 7 6 5 5 4 4 2 1 2 2 5 1 4 7 8 8 7 6 5 4
15 15 15 15 15 15 15 14 12 13 8 3 3 1 2 1 2 4 2 5 7 10 9 9 12 12 5 5 4 3 3 1 2 3 1 0 3 2 8 11 9 7 5 4 3
15 16 16 16 15 17 17 17 11 7 3 4 2 1 1 1 3 0 3 5 4 4 5 4 7 6 3 4 3 4 1 1 1 5 4 2 1 3 7 8 9 7 6 5 4
14 15 16 16 16 16 17 9 4 3 2 2 2 3 1 2 1 2 3 4 4 2 3 7 6 4 3 2 1 2 1 2 3 3 3 3 7 3 8 8 9 8 6 5 4
13 14 16 17 18 17 8 3 5 3 3 3 2 3 1 0 2 6 3 3 3 8 3 4 4 0 4 3 3 5 2 2 1 3 3 5 8 6 10 7 8 9 8 7 5
14 15 16 18 19 11 1 5 2 2 3 0 1 2 1 3 3 3 1 3 3 2 1 5 1 2 6 3 3 2 2 2 1 2 4 0 9 4 8 7 10 11 10 8 4
14 16 17 20 16 3 3 1 4 1 2 3 2 2 2 4 2 1 1 3 3 3 2 4 1 4 2 2 2 2 2 2 2 1 2 5 4 2 1 3 5 8 6 7 9
13 16 18 25 5 4 2 6 6 2 5 4 1 1 3 4 2 1 2 4 5 4 4 3 1 2 1 0 3 1 1 2 2 2 2 3 4 2 2 7 6 9 9 9 9
13 14 15 9 2 2 5 7 3 4 2 1 1 1 2 3 4 3 3 4 6 4 3 1 2 2 1 1 2 2 1 2 2 3 1 1 0 3 2 6 10 12 11 10 9
12 14 13 1 1 4 6 6 4 7 6 2 1 1 3 3 1 1 3 7 3 4 4 2 1 2 2 2 2 5 3 4 3 2 1 0 1 3 4 5 2 4 12 12 10
13 14 7 0 2 6 4 4 6 4 2 2 2 1 3 2 1 1 2 2 4 3 1 1 0 1 1 2 2 2 3 3 2 3 2 2 0 7 4 6 4 4 13 13 10
12 14 2 3 4 6 4 6 3 3 5 2 2 3 3 5 0 0 2 1 2 4 3 3 3 2 1 2 1 1 2 4 2 2 4 2 6 3 2 1 2 3 8 10 10
12 2 2 2 2 2 6 2 7 6 2 6 2 3 1 0 2 1 4 4 6 7 7 5 2 1 3 1 2 1 2 1 7 2 1 2 6 4 1 4 3 5 8 11 11
2 3 3 5 1 5 5 5 4 3 3 2 5 4 5 3 3 3 4 2 2 3 0 4 2 1 0 1 4 3 3 2 2 2 4 3 5 5 6 10 10 10 13 11 10
2 2 3 4 2 6 5 7 5 6 3 4 5 3 4 5 6 4 2 0 1 2 1 4 3 1 1 4 6 2 1 4 3 1 4 2 7 7 8 9 16 15 14 13 13
1 0 3 1 4 1 4 6 2 3 2 3 3 4 7 7 5 3 4 4 2 4 5 2 5 4 3 1 1 2 4 4 4 4 2 1 10 3 5 5 8 11 13 12 12
1 2 3 2 4 3 3 3 3 2 4 3 4 5 2 5 3 4 3 1 1 4 5 6 0 2 1 1 3 3 4 4 5 3 7 5 8 2 3 5 7 8 10 11 12
1 1 4 4 1 7 5 4 4 3 4 3 2 2 3 2 2 4 4 1 1 2 5 3 3 6 7 5 5 4 4 4 4 4 5 9 8 6 8 10 9 10 9 12 13
2 4 1 3 4 5 5 2 4 4 4 3 2 6 7 6 3 4 2 2 1 1 2 5 4 4 5 6 5 5 5 9 10 6 9 3 11 7 11 14 16 14 9 11 13
4 4 2 1 1 5 5 6 8 3 5 3 4 4 5 7 9 7 7 5 6 1 5 1 3 3 5 1 5 6 9 12 14 4 13 13 25 9 7 3 6 12 13 15 15
0 1 4 0 3 6 5 7 8 4 3 1 6 3 3 7 3 2 3 4 6 9 7 5 5 4 5 2 4 7 12 11 6 5 9 10 14 6 5 8 11 12 15 18 17
Wind_Direction
9 4 2 11 5 355 342 336 334 337 335 331 334 328 337 338 324 177 55 264 299 304 169 356 62 61 45 62 41 98 73 150 175 167 148 159 131 68 66 100 70 31 77 102 121
10 7 1 355 2 357 345 340 331 329 333 332 332 333 329 355 50 60 236 322 300 218 124 133 106 64 55 36 24 53 84 116 5 143 159 152 117 129 131 125 79 87 89 103 102
6 4 2 354 350 350 348 339 335 328 326 328 332 327 326 319 71 306 342 335 325 148 99 93 91 72 68 43 7 27 94 135 17 96 128 128 101 96 133 170 169 164 154 137 118
5 0 356 356 350 341 338 337 328 328 323 325 327 321 312 103 102 297 343 19 103 119 92 101 53 65 69 65 13 95 52 71 126 97 102 121 114 87 41 66 146 145 147 139 134
359 358 355 351 349 343 333 327 324 321 320 320 323 315 338 55 359 330 342 45 42 65 64 115 89 116 98 102 76 78 122 55 73 84 81 103 76 129 103 119 110 125 123 131 130
356 354 351 347 343 336 330 320 316 312 311 316 312 311 83 80 213 359 12 36 28 61 47 34 131 107 96 68 57 91 97 110 49 87 96 108 130 103 169 142 126 128 128 140 128
352 350 347 341 337 329 325 317 314 307 302 313 300 228 79 172 73 80 51 42 354 100 97 53 125 67 133 101 160 132 90 89 92 119 104 140 184 218 146 160 145 142 145 139 134
351 347 341 337 333 328 321 314 309 301 288 300 304 55 157 246 196 42 37 51 31 52 87 98 90 95 69 117 55 62 69 38 169 155 102 13 278 155 158 157 167 164 162 163 159
346 342 338 331 328 325 319 313 305 297 138 121 62 112 246 336 81 90 31 112 97 73 69 90 65 90 111 99 72 17 258 227 280 195 132 187 270 150 179 179 176 183 183 184 180
343 339 333 328 325 324 318 293 285 301 55 116 70 38 8 184 108 53 356 100 107 103 33 42 59 85 59 93 243 211 236 240 265 177 177 174 246 187 195 196 195 192 198 202 201
340 339 333 328 325 324 340 40 23 349 29 192 177 148 148 82 29 24 355 82 86 56 44 9 68 122 201 177 129 120 168 238 194 168 177 225 261 225 202 211 199 203 206 210 213
338 338 333 328 326 324 306 91 152 165 319 162 164 122 156 183 105 359 23 102 83 120 44 21 39 156 117 138 125 133 159 260 147 115 193 203 267 269 194 219 205 198 208 209 195
338 336 334 329 324 20 355 38 333 168 114 309 193 169 178 139 133 213 30 108 102 112 76 145 147 140 124 105 135 138 179 194 221 88 188 313 272 286 190 229 202 203 200 205 206
339 338 337 328 55 329 5 337 330 204 60 285 40 346 24 113 64 326 13 121 39 146 121 103 22 149 79 198 133 253 169 130 124 55 299 354 301 267 261 252 218 211 196 203 198
334 337 341 344 262 355 317 325 307 36 0 255 124 132 28 127 140 12 10 34 141 136 110 176 137 139 219 279 190 164 112 97 99 98 46 35 198 253 332 267 231 216 207 206 204
332 328 342 6 345 269 325 321 47 47 260 128 61 114 88 4 43 77 71 54 135 95 46 97 135 79 124 49 50 144 92 54 65 104 42 135 21 265 203 213 252 203 202 202 202
322 320 320 347 282 327 326 42 44 147 339 221 183 169 121 178 334 110 132 113 157 105 230 63 63 70 115 92 1 76 66 341 342 8 248 123 350 252 227 223 226 209 199 198 197
318 317 278 235 321 349 36 50 188 233 221 104 92 86 185 155 171 13 97 218 216 101 121 165 294 157 5 138 240 252 171 148 259 280 296 99 236 246 201 242 265 238 194 181 192
317 326 313 285 302 93 75 83 213 211 171 142 128 142 244 251 150 137 219 217 206 177 163 141 249 352 54 65 98 132 230 138 103 60 309 250 276 246 234 229 228 168 176 194 198
346 350 273 311 86 76 83 227 236 236 136 140 184 169 189 199 170 170 185 208 190 203 280 184 117 334 103 76 61 160 122 59 31 155 278 279 277 250 224 221 213 208 208 206 203
18 55 248 330 78 58 169 225 258 242 236 172 207 159 185 181 177 208 217 234 132 131 64 135 103 21 26 199 185 109 279 48 108 72 178 303 265 208 203 193 200 211 207 201 201
110 314 298 88 68 82 168 202 257 261 168 257 164 177 190 166 175 229 213 203 95 162 159 193 133 184 199 331 136 213 188 161 124 214 55 115 270 178 212 200 204 206 203 201 202
212 263 319 90 158 221 257 258 233 233 223 206 226 198 193 178 180 191 191 350 182 152 167 190 261 16 308 11 356 234 195 119 109 101 203 152 261 161 246 237 228 218 198 196 198
91 189 325 41 351 143 164 231 215 196 242 206 195 125 134 184 243 176 184 174 337 171 115 90 152 185 199 199 131 191 189 192 144 147 182 231 280 217 229 224 217 219 203 195 191
139 250 198 211 252 159 160 187 187 210 211 182 224 206 182 188 169 197 131 131 16 143 41 133 219 186 258 234 187 214 183 181 203 200 202 253 219 246 216 211 212 210 187 188 197
166 153 10 160 48 136 163 218 187 216 178 237 195 226 197 185 188 205 147 193 199 154 169 310 198 155 281 122 198 255 233 207 221 243 272 281 277 213 233 126 184 199 188 199 203
125 17 116 344 144 124 214 203 205 172 213 179 205 163 188 236 194 94 109 74 139 151 173 162 146 124 264 2 304 281 231 186 182 212 201 216 242 164 219 221 223 208 198 204 204